Back to catalog

STARLINK-35094

AliveCommunicationsSSO
NORAD 65395·PAYLOAD·🇺🇸 United States

Launched Aug 30, 2025 from Vandenberg Space Force Base

Loading…

Next Passes (next 24 hours)

TLE

FreshSource: CelesTrak SupGP

Epoch: Sep 14, 2026, 14:37 UTC

1 65395C 25191S   26257.60951389  .00032578  00000+0  10114-2 0  2579
2 65395  97.2844 123.7894 0002061  88.1028 169.9894 15.33417223    12

Track STARLINK-35094 in real time with AllMySat

Download on the App Store